Regional Weather Roundup
Issued by NWS Memphis, TN

Home | Current Version | Previous Version | Text Only | Print | Product List | Glossary On
Versions: 1 2 3 4 5 6 7 8 9 10 11 12 13 14 15 16 17 18 19 20 21 22 23 24 25 26 27 28 29 30 31 32 33 34 35 36 37 38 39 40 41 42 43 44 45 46 47 48 49 50
000
ASUS44 KMEG 021110
RWRMEG
MEMPHIS CWA HOURLY WEATHER ROUNDUP
NATIONAL WEATHER SERVICE MEMPHIS TN
500 AM CST MON MAR 02 2015

...WEST TENNESSEE...

CITY           SKY/WX    TMP DP  RH WIND       PRES   REMARKS
MEMPHIS INTL   CLOUDY    35  30  82 NE12      30.42R WCI  27
NWS MEMPHIS      N/A     34 N/A N/A MISG        N/A
JACKSON        CLOUDY    33  29  85 NE10      30.45R WCI  25
LEXINGTON      CLOUDY    34  30  86 N12       30.44R WCI  25
SAVANNAH       CLOUDY    36  36 100 N10       30.42R WCI  28
DYERSBURG      CLOUDY    30  16  55 NE18      30.49F WCI  18
UNION CITY     CLEAR     28  25  86 N12       30.49R WCI  18
PARIS          CLOUDY    27  21  80 NE16      30.48R WCI  14


...EASTERN ARKANSAS...

CITY           SKY/WX    TMP DP  RH WIND       PRES   REMARKS
JONESBORO      CLOUDY    32  25  75 NE15G22   30.48R WCI  22
WEST MEMPHIS   CLOUDY    33  31  92 NE12G22   30.44R WCI  24
BATESVILLE     CLOUDY    34  27  75 N9        30.47S WCI  26
NEWPORT        CLOUDY    33  29  86 NE15      30.49R WCI  23
WALNUT RIDGE   CLOUDY    32  23  69 NE16G24   30.48S WCI  21
BLYTHEVILLE    CLOUDY    32  27  81 NE20      30.48F WCI  20
SEARCY         CLOUDY    35  30  82 NE16      30.48R WCI  25
STUTTGART      CLOUDY    36  30  80 N16       30.44R WCI  26
PINE BLUFF     CLOUDY    37  34  89 NE17      30.41R WCI  27
MONTICELLO     RAIN      38  36  92 NE8       30.37S FOG     WCI  32


...NORTH MISSISSIPPI...

CITY           SKY/WX    TMP DP  RH WIND       PRES   REMARKS
TUPELO         LGT RAIN  41  39  93 NE18      30.37R FOG
OXFORD         CLOUDY    36  34  93 N9        30.40R FOG     WCI  29
OLIVE BRANCH   CLOUDY    32  32 100 N10G18    30.43R WCI  24
TUNICA         CLOUDY    36  32  87 N14       30.44R WCI  27
CLARKSDALE     CLOUDY    36  36 100 N18       30.41R WCI  25
CORINTH        MIX PCPN  37  36  93 N13G18    30.40R WCI  29
GREENWOOD        N/A    N/A N/A N/A MISG      30.33S
COLUMBUS       LGT RAIN  52  52 100 N8        30.31S
STARKVILLE     CLOUDY    52  52 100 N6        30.31R
GOLDEN TRIANGL CLOUDY    52  50  93 N6        30.30R


...SOUTHEAST MISSOURI...

CITY           SKY/WX    TMP DP  RH WIND       PRES   REMARKS
WEST PLAINS    PTCLDY    23  19  85 NE6       30.47R WCI  16
POPLAR BLUFF   MOCLDY    30  20  66 N8        30.50R WCI  22
CAPE GIRARDEAU PTCLDY    28  21  75 N14       30.52S WCI  17


...NORTHWEST ALABAMA...

CITY           SKY/WX    TMP DP  RH WIND       PRES   REMARKS
MUSCLE SHOALS  LGT RAIN  44  41  89 N13G18    30.37R FOG


...MIDDLE TENNESSEE...

CITY           SKY/WX    TMP DP  RH WIND       PRES   REMARKS
NASHVILLE      CLOUDY    33  30  88 N10       30.46R WCI  25
CLARKSVILLE    CLOUDY    30  27  88 N10       30.48R WCI  21
COLUMBIA       CLOUDY   N/A N/A N/A N9        30.41R


...WESTERN KENTUCKY...

CITY           SKY/WX    TMP DP  RH WIND       PRES   REMARKS
PADUCAH        PTCLDY    28  21  75 NE12      30.51R WCI  18
FORT CAMPBELL  CLOUDY    30  25  82 N10       30.49R WCI  21


...CENTRAL ARKANSAS...

CITY           SKY/WX    TMP DP  RH WIND       PRES   REMARKS
LITTLE ROCK    CLOUDY    37  30  75 NE13      30.44R WCI  29


SKY/WX REPORTED AS FAIR MEANS FEW OR NO CLOUDS BELOW
12 THOUSAND FEET.



USA.gov is the U.S. government's official web portal to all federal, state and local government web resources and services.